BOV708 SLVR-SAEZ

Flight info

Callsign BOV708
Flight time 2h 28m
Altitude 37000
Route KABOM UL404 GEMIK/N0454F390 UL404 ISOPO UT672 MULTA UW24 SNT SNT7V
Aircraft B738/M-SDE2E3FGHIRWXY/LB1

Departure

Time 2026-04-25 13:50
Airport Viru Viru International Airport (SLVR)

Arrival

Time 2026-04-25 16:19
Airport Ezeiza International Airport - Ministro Pistarini (SAEZ)
Time Latitude Longitude Altitude Speed Heading
2026-04-25 13:37 -17.64762 -63.13972 1232 ft 0 kts 237°
2026-04-25 13:39 -17.64758 -63.13966 1232 ft 2 kts 236°
2026-04-25 13:39 -17.64749 -63.13952 1232 ft 2 kts 232°
2026-04-25 13:39 -17.64739 -63.13939 1232 ft 2 kts 226°
2026-04-25 13:39 -17.64727 -63.13927 1232 ft 2 kts 216°
2026-04-25 13:40 -17.64714 -63.13919 1232 ft 2 kts 195°
2026-04-25 13:40 -17.64701 -63.13917 1232 ft 2 kts 158°
2026-04-25 13:40 -17.64692 -63.13922 1232 ft 0 kts 147°
2026-04-25 13:41 -17.64693 -63.13922 1232 ft 0 kts 147°
2026-04-25 13:42 -17.64695 -63.13920 1232 ft 1 kts 147°
2026-04-25 13:43 -17.64705 -63.13913 1232 ft 5 kts 147°
2026-04-25 13:43 -17.64747 -63.13885 1232 ft 7 kts 147°
2026-04-25 13:43 -17.64776 -63.13866 1232 ft 4 kts 147°
2026-04-25 13:43 -17.64832 -63.13828 1232 ft 11 kts 147°
2026-04-25 13:44 -17.64885 -63.13772 1232 ft 12 kts 100°
2026-04-25 13:44 -17.64865 -63.13718 1232 ft 8 kts 58°
2026-04-25 13:44 -17.64839 -63.13675 1232 ft 6 kts 57°
2026-04-25 13:44 -17.64810 -63.13627 1232 ft 9 kts 56°
2026-04-25 13:45 -17.64794 -63.13568 1232 ft 9 kts 124°
2026-04-25 13:45 -17.64854 -63.13523 1232 ft 12 kts 147°
2026-04-25 13:45 -17.64934 -63.13469 1232 ft 15 kts 147°
2026-04-25 13:45 -17.65030 -63.13403 1232 ft 18 kts 147°
2026-04-25 13:46 -17.65132 -63.13333 1232 ft 18 kts 147°
2026-04-25 13:46 -17.65241 -63.13260 1232 ft 18 kts 147°
2026-04-25 13:46 -17.65349 -63.13189 1232 ft 18 kts 147°
2026-04-25 13:46 -17.65444 -63.13125 1232 ft 15 kts 147°
2026-04-25 13:47 -17.65542 -63.13060 1232 ft 18 kts 148°
2026-04-25 13:47 -17.65640 -63.12994 1232 ft 17 kts 147°
2026-04-25 13:47 -17.65727 -63.12935 1232 ft 14 kts 147°
2026-04-25 13:47 -17.65812 -63.12877 1232 ft 15 kts 147°
2026-04-25 13:48 -17.65877 -63.12797 1232 ft 12 kts 90°
2026-04-25 13:48 -17.65855 -63.12744 1232 ft 6 kts 59°
2026-04-25 13:48 -17.65826 -63.12694 1232 ft 10 kts 57°
2026-04-25 13:48 -17.65783 -63.12661 1232 ft 5 kts 358°
2026-04-25 13:49 -17.65767 -63.12670 1232 ft 0 kts 327°
2026-04-25 13:49 -17.65766 -63.12670 1232 ft 0 kts 327°
2026-04-25 13:50 -17.65715 -63.12704 1232 ft 29 kts 328°
2026-04-25 13:50 -17.65324 -63.12965 1232 ft 101 kts 327°
2026-04-25 13:50 -17.64551 -63.13486 1234 ft 161 kts 328°
2026-04-25 13:50 -17.63575 -63.14140 1867 ft 167 kts 328°
2026-04-25 13:51 -17.62632 -63.14783 2879 ft 156 kts 328°
2026-04-25 13:51 -17.61703 -63.15408 3551 ft 167 kts 328°
2026-04-25 13:51 -17.60910 -63.16403 3932 ft 196 kts 293°
2026-04-25 13:51 -17.60857 -63.17892 4305 ft 224 kts 259°
2026-04-25 13:52 -17.61678 -63.19383 4631 ft 253 kts 229°
2026-04-25 13:52 -17.63240 -63.20312 5309 ft 265 kts 198°
2026-04-25 13:52 -17.65123 -63.20480 5938 ft 281 kts 180°
2026-04-25 13:52 -17.67130 -63.20402 6592 ft 294 kts 179°
2026-04-25 13:53 -17.69198 -63.20307 7428 ft 300 kts 179°
2026-04-25 13:53 -17.71307 -63.20207 8290 ft 304 kts 179°
2026-04-25 13:53 -17.73435 -63.20108 9134 ft 309 kts 179°
2026-04-25 13:53 -17.75572 -63.20008 9983 ft 312 kts 179°
2026-04-25 13:54 -17.77746 -63.19908 10835 ft 316 kts 179°
2026-04-25 13:54 -17.80000 -63.19803 11306 ft 334 kts 179°
2026-04-25 13:54 -17.82397 -63.19692 11624 ft 354 kts 179°
2026-04-25 13:54 -17.84920 -63.19576 11964 ft 371 kts 179°
2026-04-25 13:55 -17.87538 -63.19455 12535 ft 379 kts 179°
2026-04-25 13:55 -17.90191 -63.19333 13205 ft 384 kts 179°
2026-04-25 13:55 -17.92880 -63.19209 13864 ft 388 kts 179°
2026-04-25 13:55 -17.95616 -63.19083 14515 ft 391 kts 179°
2026-04-25 13:56 -17.98320 -63.18958 15121 ft 395 kts 179°
2026-04-25 13:56 -18.01084 -63.18831 15713 ft 399 kts 179°
2026-04-25 13:56 -18.03873 -63.18702 16291 ft 403 kts 179°
2026-04-25 13:56 -18.06685 -63.18573 16856 ft 406 kts 179°
2026-04-25 13:57 -18.09531 -63.18442 17406 ft 410 kts 179°
2026-04-25 13:57 -18.10492 -63.18397 17590 ft 411 kts 179°
2026-04-25 13:57 -18.15245 -63.18184 18728 ft 407 kts 178°
2026-04-25 13:57 -18.18068 -63.18059 19444 ft 405 kts 177°
2026-04-25 13:58 -18.20901 -63.17927 19903 ft 409 kts 177°
2026-04-25 13:58 -18.23756 -63.17793 20393 ft 411 kts 177°
2026-04-25 13:58 -18.26620 -63.17659 20865 ft 414 kts 177°
2026-04-25 13:58 -18.29520 -63.17524 21297 ft 418 kts 177°
2026-04-25 13:59 -18.32443 -63.17387 21675 ft 422 kts 177°
2026-04-25 13:59 -18.35348 -63.17252 22091 ft 425 kts 178°
2026-04-25 13:59 -18.38353 -63.17113 22503 ft 428 kts 178°
2026-04-25 13:59 -18.41303 -63.16976 22898 ft 431 kts 178°
2026-04-25 14:00 -18.44355 -63.16834 23298 ft 434 kts 178°
2026-04-25 14:00 -18.47375 -63.16694 23703 ft 437 kts 178°
2026-04-25 14:00 -18.50381 -63.16555 24080 ft 439 kts 178°
2026-04-25 14:00 -18.53450 -63.16413 24446 ft 442 kts 178°
2026-04-25 14:01 -18.56539 -63.16269 24799 ft 445 kts 178°
2026-04-25 14:01 -18.59640 -63.16125 25147 ft 448 kts 178°
2026-04-25 14:01 -18.62809 -63.15978 25494 ft 451 kts 178°
2026-04-25 14:01 -18.65906 -63.15835 25841 ft 453 kts 178°
2026-04-25 14:02 -18.69064 -63.15688 26174 ft 455 kts 178°
2026-04-25 14:02 -18.72234 -63.15541 26511 ft 457 kts 178°
2026-04-25 14:02 -18.75462 -63.15391 26855 ft 459 kts 178°
2026-04-25 14:02 -18.76497 -63.15343 26958 ft 460 kts 178°
2026-04-25 14:03 -18.81853 -63.15093 27588 ft 461 kts 178°
2026-04-25 14:03 -18.85060 -63.14944 28011 ft 461 kts 178°
2026-04-25 14:03 -18.88276 -63.14795 28345 ft 464 kts 178°
2026-04-25 14:03 -18.91465 -63.14646 28669 ft 466 kts 178°
2026-04-25 14:04 -18.94715 -63.14495 28985 ft 468 kts 178°
2026-04-25 14:04 -18.97977 -63.14343 29288 ft 471 kts 178°
2026-04-25 14:04 -19.01252 -63.14191 29630 ft 472 kts 178°
2026-04-25 14:04 -19.04546 -63.14037 29934 ft 474 kts 178°
2026-04-25 14:05 -19.07845 -63.13883 30225 ft 476 kts 178°
2026-04-25 14:05 -19.11165 -63.13728 30531 ft 478 kts 178°
2026-04-25 14:05 -19.14492 -63.13573 30921 ft 477 kts 178°
2026-04-25 14:05 -19.17808 -63.13418 31334 ft 476 kts 178°
2026-04-25 14:06 -19.21122 -63.13264 31739 ft 475 kts 178°
2026-04-25 14:06 -19.24417 -63.13110 32110 ft 475 kts 178°
2026-04-25 14:06 -19.27714 -63.12955 32470 ft 474 kts 178°
2026-04-25 14:06 -19.31019 -63.12799 32739 ft 476 kts 178°
2026-04-25 14:07 -19.33209 -63.12697 32976 ft 476 kts 178°
2026-04-25 14:07 -19.37631 -63.12491 33462 ft 475 kts 178°
2026-04-25 14:07 -19.39815 -63.12388 33675 ft 475 kts 178°
2026-04-25 14:07 -19.43116 -63.12234 33997 ft 475 kts 178°
2026-04-25 14:08 -19.46417 -63.12080 34303 ft 475 kts 178°
2026-04-25 14:08 -19.49722 -63.11925 34652 ft 474 kts 178°
2026-04-25 14:08 -19.52997 -63.11771 34988 ft 473 kts 178°
2026-04-25 14:08 -19.56284 -63.11617 35299 ft 473 kts 178°
2026-04-25 14:09 -19.59592 -63.11462 35599 ft 472 kts 178°
2026-04-25 14:09 -19.62876 -63.11308 35902 ft 472 kts 178°
2026-04-25 14:09 -19.66165 -63.11154 36192 ft 472 kts 178°
2026-04-25 14:09 -19.68337 -63.11051 36379 ft 472 kts 178°
2026-04-25 14:10 -19.72723 -63.10845 36722 ft 472 kts 178°
2026-04-25 14:10 -19.76006 -63.10691 36984 ft 472 kts 179°
2026-04-25 14:10 -19.79296 -63.10536 36998 ft 476 kts 179°
2026-04-25 14:11 -19.85973 -63.10221 37007 ft 485 kts 179°
2026-04-25 14:11 -19.92765 -63.09902 37010 ft 490 kts 179°
2026-04-25 14:12 -19.99575 -63.09580 37006 ft 490 kts 179°
2026-04-25 14:12 -20.06377 -63.09259 37009 ft 489 kts 179°
2026-04-25 14:13 -20.13187 -63.08937 37011 ft 490 kts 179°
2026-04-25 14:13 -20.19993 -63.08615 37009 ft 489 kts 179°
2026-04-25 14:14 -20.26802 -63.08294 37016 ft 491 kts 179°
2026-04-25 14:14 -20.33623 -63.07968 37014 ft 490 kts 179°
2026-04-25 14:15 -20.40430 -63.07647 37014 ft 490 kts 179°
2026-04-25 14:15 -20.47265 -63.07324 37023 ft 492 kts 179°
2026-04-25 14:16 -20.54100 -63.06999 37021 ft 491 kts 179°
2026-04-25 14:16 -20.60944 -63.06676 37028 ft 493 kts 179°
2026-04-25 14:17 -20.67802 -63.06348 37033 ft 493 kts 179°
2026-04-25 14:17 -20.74660 -63.06023 37033 ft 493 kts 179°
2026-04-25 14:18 -20.81528 -63.05694 37040 ft 495 kts 180°
2026-04-25 14:18 -20.88406 -63.05367 37041 ft 495 kts 180°
2026-04-25 14:19 -20.95292 -63.05038 37044 ft 495 kts 180°
2026-04-25 14:19 -21.02175 -63.04707 37046 ft 496 kts 180°
2026-04-25 14:20 -21.09032 -63.04380 37047 ft 496 kts 180°
2026-04-25 14:20 -21.15929 -63.04052 37052 ft 497 kts 180°
2026-04-25 14:21 -21.22834 -63.03720 37053 ft 496 kts 180°
2026-04-25 14:21 -21.29737 -63.03389 37054 ft 495 kts 180°
2026-04-25 14:22 -21.36602 -63.03057 37053 ft 493 kts 180°
2026-04-25 14:22 -21.43460 -63.02727 37050 ft 494 kts 180°
2026-04-25 14:23 -21.50321 -63.02397 37055 ft 494 kts 180°
2026-04-25 14:23 -21.57191 -63.02068 37053 ft 494 kts 180°
2026-04-25 14:24 -21.64054 -63.01737 37053 ft 494 kts 180°
2026-04-25 14:24 -21.70917 -63.01406 37051 ft 494 kts 180°
2026-04-25 14:25 -21.77782 -63.01075 37053 ft 494 kts 180°
2026-04-25 14:25 -21.84640 -63.00744 37054 ft 493 kts 180°
2026-04-25 14:26 -21.91497 -63.00413 37053 ft 493 kts 181°
2026-04-25 14:26 -21.98362 -63.00080 37053 ft 493 kts 180°
2026-04-25 14:27 -22.05209 -62.99268 37053 ft 496 kts 174°
2026-04-25 14:27 -22.12028 -62.98037 37054 ft 497 kts 173°
2026-04-25 14:28 -22.18846 -62.96814 37054 ft 497 kts 174°
2026-04-25 14:28 -22.25672 -62.95609 37052 ft 497 kts 174°
2026-04-25 14:29 -22.32484 -62.94417 37053 ft 494 kts 174°
2026-04-25 14:29 -22.39257 -62.93241 37051 ft 493 kts 174°
2026-04-25 14:30 -22.46045 -62.92065 37055 ft 494 kts 174°
2026-04-25 14:30 -22.56175 -62.90310 37055 ft 493 kts 174°
2026-04-25 14:31 -22.63006 -62.89125 37054 ft 493 kts 174°
2026-04-25 14:31 -22.69738 -62.87956 37053 ft 493 kts 174°
2026-04-25 14:32 -22.76514 -62.86779 37053 ft 493 kts 174°
2026-04-25 14:32 -22.83295 -62.85596 37053 ft 494 kts 175°
2026-04-25 14:33 -22.90092 -62.84417 37053 ft 495 kts 175°
2026-04-25 14:33 -22.96892 -62.83229 37052 ft 495 kts 175°
2026-04-25 14:34 -23.03690 -62.82044 37054 ft 495 kts 174°
2026-04-25 14:34 -23.10488 -62.80858 37054 ft 495 kts 175°
2026-04-25 14:35 -23.17284 -62.79670 37053 ft 495 kts 175°
2026-04-25 14:35 -23.24123 -62.78472 37054 ft 495 kts 175°
2026-04-25 14:36 -23.30890 -62.77286 37053 ft 496 kts 175°
2026-04-25 14:36 -23.37731 -62.76087 37053 ft 499 kts 175°
2026-04-25 14:37 -23.44585 -62.74885 37051 ft 498 kts 175°
2026-04-25 14:37 -23.51424 -62.73683 37053 ft 498 kts 175°
2026-04-25 14:38 -23.58260 -62.72481 37052 ft 498 kts 175°
2026-04-25 14:38 -23.65106 -62.71277 37052 ft 498 kts 175°
2026-04-25 14:39 -23.71940 -62.70075 37052 ft 498 kts 175°
2026-04-25 14:39 -23.78785 -62.68863 37054 ft 499 kts 175°
2026-04-25 14:40 -23.85666 -62.67650 37054 ft 501 kts 176°
2026-04-25 14:40 -23.92549 -62.66433 37052 ft 501 kts 175°
2026-04-25 14:41 -23.99434 -62.65213 37053 ft 501 kts 175°
2026-04-25 14:41 -24.06310 -62.63995 37053 ft 501 kts 175°
2026-04-25 14:42 -24.10921 -62.63178 37053 ft 501 kts 175°
2026-04-25 14:42 -24.20080 -62.61554 37052 ft 501 kts 176°
2026-04-25 14:43 -24.26964 -62.60328 37052 ft 501 kts 175°
2026-04-25 14:43 -24.33850 -62.59101 37053 ft 501 kts 176°
2026-04-25 14:44 -24.40727 -62.57877 37053 ft 501 kts 176°
2026-04-25 14:44 -24.47611 -62.56651 37053 ft 501 kts 175°
2026-04-25 14:45 -24.54488 -62.55422 37053 ft 501 kts 175°
2026-04-25 14:45 -24.61376 -62.54189 37052 ft 501 kts 175°
2026-04-25 14:46 -24.68255 -62.52956 37049 ft 501 kts 176°
2026-04-25 14:46 -24.75158 -62.51724 37053 ft 504 kts 176°
2026-04-25 14:47 -24.79791 -62.50900 37052 ft 504 kts 177°
2026-04-25 14:47 -24.87817 -62.49474 37053 ft 502 kts 177°
2026-04-25 14:48 -24.94718 -62.48243 37053 ft 503 kts 177°
2026-04-25 14:48 -25.01625 -62.47015 37055 ft 502 kts 177°
2026-04-25 14:49 -25.08532 -62.45786 37051 ft 503 kts 177°
2026-04-25 14:49 -25.15437 -62.44550 37052 ft 503 kts 177°
2026-04-25 14:50 -25.22343 -62.43312 37053 ft 503 kts 177°
2026-04-25 14:50 -25.29244 -62.42071 37052 ft 502 kts 178°
2026-04-25 14:51 -25.36134 -62.40826 37054 ft 501 kts 178°
2026-04-25 14:51 -25.43019 -62.39579 37053 ft 501 kts 178°
2026-04-25 14:52 -25.49896 -62.38330 37054 ft 501 kts 178°
2026-04-25 14:52 -25.55620 -62.37289 37053 ft 501 kts 178°
2026-04-25 14:53 -25.63663 -62.35826 37053 ft 501 kts 178°
2026-04-25 14:53 -25.70508 -62.34582 37053 ft 501 kts 178°
2026-04-25 14:54 -25.77394 -62.33329 37052 ft 501 kts 178°
2026-04-25 14:54 -25.84305 -62.32067 37052 ft 499 kts 179°
2026-04-25 14:55 -25.91112 -62.30825 37054 ft 499 kts 179°
2026-04-25 14:55 -25.97962 -62.29572 37053 ft 499 kts 178°
2026-04-25 14:56 -26.04816 -62.28318 37053 ft 499 kts 179°
2026-04-25 14:56 -26.11557 -62.27082 37053 ft 499 kts 179°
2026-04-25 14:57 -26.18524 -62.25803 37053 ft 499 kts 179°
2026-04-25 14:57 -26.25380 -62.24543 37053 ft 499 kts 179°
2026-04-25 14:58 -26.32227 -62.23283 37053 ft 499 kts 179°
2026-04-25 14:58 -26.39080 -62.22020 37053 ft 499 kts 179°
2026-04-25 14:59 -26.45940 -62.20756 37051 ft 499 kts 179°
2026-04-25 14:59 -26.52781 -62.19491 37055 ft 498 kts 179°
2026-04-25 15:00 -26.59582 -62.18233 37052 ft 498 kts 179°
2026-04-25 15:00 -26.66417 -62.16969 37052 ft 498 kts 179°
2026-04-25 15:01 -26.73306 -62.15691 37056 ft 498 kts 179°
2026-04-25 15:01 -26.80141 -62.14423 37055 ft 498 kts 179°
2026-04-25 15:02 -26.86909 -62.13165 37054 ft 494 kts 180°
2026-04-25 15:02 -26.93692 -62.11907 37052 ft 495 kts 180°
2026-04-25 15:03 -27.00493 -62.10640 37053 ft 495 kts 180°
2026-04-25 15:03 -27.07326 -62.09365 37053 ft 495 kts 180°
2026-04-25 15:04 -27.14130 -62.08093 37058 ft 495 kts 180°
2026-04-25 15:04 -27.20923 -62.06824 37053 ft 495 kts 180°
2026-04-25 15:05 -27.27719 -62.05551 37053 ft 495 kts 180°
2026-04-25 15:06 -27.37826 -62.03653 37053 ft 489 kts 181°
2026-04-25 15:06 -27.44552 -62.02389 37053 ft 490 kts 181°
2026-04-25 15:07 -27.51282 -62.01121 37053 ft 490 kts 181°
2026-04-25 15:07 -27.58009 -61.99859 37051 ft 490 kts 181°
2026-04-25 15:08 -27.64740 -61.98594 37051 ft 490 kts 181°
2026-04-25 15:08 -27.71476 -61.97324 37052 ft 490 kts 181°
2026-04-25 15:09 -27.78196 -61.96056 37053 ft 490 kts 181°
2026-04-25 15:09 -27.88351 -61.94133 37053 ft 495 kts 181°
2026-04-25 15:10 -27.95155 -61.92844 37053 ft 495 kts 182°
2026-04-25 15:11 -28.05338 -61.90913 37053 ft 495 kts 181°
2026-04-25 15:11 -28.12125 -61.89623 37051 ft 495 kts 182°
2026-04-25 15:12 -28.22316 -61.87685 37050 ft 495 kts 181°
2026-04-25 15:12 -28.26822 -61.86825 37053 ft 495 kts 181°
2026-04-25 15:13 -28.39341 -61.84429 37053 ft 497 kts 182°
2026-04-25 15:14 -28.46146 -61.83129 37056 ft 497 kts 182°
2026-04-25 15:14 -28.52960 -61.81947 37049 ft 493 kts 185°
2026-04-25 15:15 -28.59735 -61.80960 37050 ft 493 kts 184°
2026-04-25 15:15 -28.66553 -61.79953 37049 ft 493 kts 184°
2026-04-25 15:16 -28.73399 -61.78932 37052 ft 493 kts 184°
2026-04-25 15:16 -28.83604 -61.77400 37054 ft 496 kts 185°
2026-04-25 15:17 -28.93959 -61.75851 37051 ft 499 kts 185°
2026-04-25 15:18 -29.00839 -61.74815 37052 ft 498 kts 185°
2026-04-25 15:18 -29.11217 -61.73254 37053 ft 499 kts 185°
2026-04-25 15:19 -29.15780 -61.72564 37052 ft 499 kts 185°
2026-04-25 15:19 -29.24989 -61.71170 37054 ft 499 kts 185°
2026-04-25 15:20 -29.31822 -61.70135 37048 ft 497 kts 185°
2026-04-25 15:20 -29.38663 -61.69101 37053 ft 496 kts 186°
2026-04-25 15:21 -29.45553 -61.68060 37053 ft 496 kts 186°
2026-04-25 15:21 -29.52356 -61.67031 37053 ft 496 kts 186°
2026-04-25 15:22 -29.59205 -61.65994 37052 ft 496 kts 186°
2026-04-25 15:22 -29.66059 -61.64956 37051 ft 496 kts 186°
2026-04-25 15:23 -29.71791 -61.64088 37051 ft 496 kts 186°
2026-04-25 15:23 -29.78601 -61.63054 37053 ft 497 kts 186°
2026-04-25 15:24 -29.85514 -61.62004 37053 ft 497 kts 186°
2026-04-25 15:24 -29.91219 -61.61137 37054 ft 497 kts 186°
2026-04-25 15:25 -29.99194 -61.59920 37055 ft 497 kts 186°
2026-04-25 15:25 -30.06103 -61.58864 37051 ft 497 kts 186°
2026-04-25 15:26 -30.12927 -61.57821 37052 ft 497 kts 186°
2026-04-25 15:26 -30.19788 -61.56771 37053 ft 497 kts 186°
2026-04-25 15:27 -30.26653 -61.55721 37053 ft 497 kts 186°
2026-04-25 15:28 -30.36954 -61.54138 37055 ft 498 kts 186°
2026-04-25 15:28 -30.43814 -61.53079 37053 ft 498 kts 186°
2026-04-25 15:29 -30.50684 -61.52019 37053 ft 498 kts 186°
2026-04-25 15:29 -30.57555 -61.50946 37053 ft 498 kts 186°
2026-04-25 15:30 -30.64424 -61.49865 37053 ft 498 kts 186°
2026-04-25 15:30 -30.71289 -61.48780 37053 ft 498 kts 186°
2026-04-25 15:31 -30.78156 -61.47712 37052 ft 497 kts 186°
2026-04-25 15:31 -30.84985 -61.46649 37043 ft 493 kts 186°
2026-04-25 15:32 -30.91754 -61.45591 37042 ft 494 kts 186°
2026-04-25 15:32 -30.98557 -61.44524 37043 ft 493 kts 186°
2026-04-25 15:33 -31.05320 -61.43477 37056 ft 482 kts 172°
2026-04-25 15:33 -31.08576 -61.42980 37029 ft 458 kts 171°
2026-04-25 15:33 -31.11663 -61.42485 37028 ft 443 kts 172°
2026-04-25 15:33 -31.14676 -61.41998 37019 ft 432 kts 174°
2026-04-25 15:34 -31.20582 -61.41081 37031 ft 427 kts 174°
2026-04-25 15:34 -31.25499 -61.40294 37037 ft 427 kts 174°
2026-04-25 15:35 -31.35214 -61.37810 37036 ft 433 kts 168°
2026-04-25 15:36 -31.43547 -61.33520 37038 ft 442 kts 155°
2026-04-25 15:36 -31.48806 -61.29825 37036 ft 446 kts 156°
2026-04-25 15:37 -31.54204 -61.26046 37031 ft 449 kts 156°
2026-04-25 15:37 -31.59523 -61.22311 37032 ft 446 kts 155°
2026-04-25 15:38 -31.64827 -61.18568 37032 ft 444 kts 155°
2026-04-25 15:38 -31.70176 -61.14762 37027 ft 455 kts 157°
2026-04-25 15:39 -31.75667 -61.10898 37033 ft 463 kts 157°
2026-04-25 15:39 -31.81200 -61.07005 37030 ft 462 kts 157°
2026-04-25 15:40 -31.84871 -61.04416 37028 ft 458 kts 156°
2026-04-25 15:40 -31.92119 -60.99281 37032 ft 456 kts 156°
2026-04-25 15:41 -31.97535 -60.95438 37031 ft 454 kts 156°
2026-04-25 15:41 -32.02943 -60.91670 37035 ft 445 kts 152°
2026-04-25 15:42 -32.08179 -60.87918 37037 ft 436 kts 151°
2026-04-25 15:42 -32.13333 -60.84218 37039 ft 433 kts 151°
2026-04-25 15:43 -32.18496 -60.80523 37040 ft 436 kts 150°
2026-04-25 15:43 -32.23704 -60.76795 37035 ft 437 kts 149°
2026-04-25 15:44 -32.28870 -60.73087 37035 ft 437 kts 150°
2026-04-25 15:44 -32.34067 -60.69363 37043 ft 438 kts 149°
2026-04-25 15:45 -32.39310 -60.65625 37045 ft 446 kts 147°
2026-04-25 15:45 -32.42909 -60.63024 37048 ft 448 kts 147°
2026-04-25 15:46 -32.49906 -60.57969 37047 ft 435 kts 147°
2026-04-25 15:46 -32.55038 -60.54262 37045 ft 433 kts 147°
2026-04-25 15:47 -32.60228 -60.50510 37048 ft 441 kts 146°
2026-04-25 15:47 -32.65459 -60.46724 37049 ft 443 kts 146°
2026-04-25 15:48 -32.70757 -60.42885 37049 ft 444 kts 146°
2026-04-25 15:48 -32.76061 -60.39037 37050 ft 447 kts 146°
2026-04-25 15:49 -32.81336 -60.35205 37051 ft 448 kts 147°
2026-04-25 15:49 -32.86645 -60.31344 37050 ft 447 kts 146°
2026-04-25 15:50 -32.91954 -60.27477 37047 ft 447 kts 146°
2026-04-25 15:50 -32.94621 -60.25532 36745 ft 445 kts 146°
2026-04-25 15:50 -32.97256 -60.23609 36189 ft 442 kts 146°
2026-04-25 15:51 -32.99854 -60.21713 35532 ft 443 kts 146°
2026-04-25 15:51 -33.00745 -60.21062 35308 ft 444 kts 146°
2026-04-25 15:51 -33.05109 -60.17872 34438 ft 440 kts 146°
2026-04-25 15:51 -33.07709 -60.15971 33968 ft 436 kts 146°
2026-04-25 15:52 -33.10284 -60.14085 33502 ft 433 kts 145°
2026-04-25 15:52 -33.12849 -60.12205 33037 ft 430 kts 145°
2026-04-25 15:52 -33.15394 -60.10338 32577 ft 428 kts 146°
2026-04-25 15:52 -33.17914 -60.08489 32124 ft 425 kts 145°
2026-04-25 15:53 -33.20430 -60.06641 31675 ft 423 kts 145°
2026-04-25 15:53 -33.22929 -60.04806 31245 ft 420 kts 145°
2026-04-25 15:53 -33.25409 -60.02989 30824 ft 416 kts 144°
2026-04-25 15:53 -33.27863 -60.01183 30413 ft 411 kts 144°
2026-04-25 15:54 -33.30279 -59.99395 30078 ft 403 kts 146°
2026-04-25 15:54 -33.32631 -59.97650 29716 ft 396 kts 146°
2026-04-25 15:54 -33.34993 -59.95931 29282 ft 390 kts 145°
2026-04-25 15:54 -33.37278 -59.94243 28897 ft 383 kts 145°
2026-04-25 15:55 -33.39503 -59.92598 28511 ft 378 kts 146°
2026-04-25 15:55 -33.41703 -59.90944 28159 ft 370 kts 147°
2026-04-25 15:55 -33.43872 -59.89328 27777 ft 364 kts 149°
2026-04-25 15:55 -33.46011 -59.87755 27386 ft 358 kts 149°
2026-04-25 15:56 -33.48127 -59.86196 27008 ft 354 kts 149°
2026-04-25 15:56 -33.50220 -59.84661 26609 ft 350 kts 148°
2026-04-25 15:56 -33.52281 -59.83141 26237 ft 347 kts 147°
2026-04-25 15:56 -33.54327 -59.81627 25862 ft 344 kts 147°
2026-04-25 15:57 -33.56354 -59.80125 25486 ft 341 kts 146°
2026-04-25 15:57 -33.58366 -59.78622 25146 ft 338 kts 147°
2026-04-25 15:57 -33.60342 -59.77124 24789 ft 335 kts 149°
2026-04-25 15:57 -33.62311 -59.75645 24392 ft 334 kts 155°
2026-04-25 15:58 -33.64288 -59.74166 23979 ft 335 kts 156°
2026-04-25 15:58 -33.66281 -59.72696 23602 ft 338 kts 156°
2026-04-25 15:58 -33.68281 -59.71228 23276 ft 335 kts 155°
2026-04-25 15:58 -33.70262 -59.69760 22897 ft 334 kts 155°
2026-04-25 15:59 -33.72231 -59.68298 22521 ft 331 kts 156°
2026-04-25 15:59 -33.74184 -59.66844 22145 ft 329 kts 156°
2026-04-25 15:59 -33.76140 -59.65384 21643 ft 336 kts 157°
2026-04-25 15:59 -33.78194 -59.63850 21227 ft 361 kts 158°
2026-04-25 16:00 -33.80376 -59.62224 20844 ft 374 kts 158°
2026-04-25 16:00 -33.81124 -59.61668 20707 ft 377 kts 158°
2026-04-25 16:00 -33.84854 -59.58887 20043 ft 378 kts 158°
2026-04-25 16:00 -33.87081 -59.57231 19588 ft 379 kts 157°
2026-04-25 16:01 -33.89335 -59.55560 19144 ft 380 kts 156°
2026-04-25 16:01 -33.90823 -59.54445 18880 ft 379 kts 155°
2026-04-25 16:01 -33.93055 -59.52770 18482 ft 378 kts 155°
2026-04-25 16:01 -33.95290 -59.51091 18079 ft 377 kts 155°
2026-04-25 16:02 -33.97503 -59.49429 17679 ft 376 kts 155°
2026-04-25 16:02 -33.99720 -59.47764 17277 ft 374 kts 155°
2026-04-25 16:02 -34.01923 -59.46109 16877 ft 373 kts 155°
2026-04-25 16:02 -34.04091 -59.44395 16550 ft 373 kts 150°
2026-04-25 16:03 -34.06125 -59.42504 16264 ft 364 kts 149°
2026-04-25 16:03 -34.08114 -59.40629 15734 ft 361 kts 148°
2026-04-25 16:03 -34.10083 -59.38769 15198 ft 359 kts 148°
2026-04-25 16:03 -34.12039 -59.36919 14694 ft 356 kts 148°
2026-04-25 16:04 -34.13987 -59.35075 14194 ft 354 kts 148°
2026-04-25 16:04 -34.15920 -59.33244 13871 ft 351 kts 148°
2026-04-25 16:04 -34.17806 -59.31459 13613 ft 347 kts 148°
2026-04-25 16:04 -34.19699 -59.29662 13310 ft 344 kts 148°
2026-04-25 16:05 -34.21570 -59.27885 12996 ft 341 kts 147°
2026-04-25 16:05 -34.23433 -59.26116 12701 ft 338 kts 147°
2026-04-25 16:05 -34.27111 -59.22626 12091 ft 333 kts 147°
2026-04-25 16:06 -34.28933 -59.20893 11784 ft 331 kts 147°
2026-04-25 16:06 -34.30729 -59.19184 11485 ft 328 kts 147°
2026-04-25 16:06 -34.32518 -59.17491 11243 ft 323 kts 147°
2026-04-25 16:06 -34.34256 -59.15845 11156 ft 313 kts 147°
2026-04-25 16:07 -34.35955 -59.14232 11047 ft 305 kts 146°
2026-04-25 16:07 -34.37050 -59.13195 10922 ft 302 kts 146°
2026-04-25 16:07 -34.39241 -59.11116 10373 ft 298 kts 146°
2026-04-25 16:07 -34.40882 -59.09556 9790 ft 302 kts 146°
2026-04-25 16:08 -34.42530 -59.07986 9290 ft 301 kts 145°
2026-04-25 16:08 -34.44177 -59.06418 8845 ft 299 kts 145°
2026-04-25 16:08 -34.45800 -59.04870 8404 ft 296 kts 145°
2026-04-25 16:08 -34.47405 -59.03338 7954 ft 293 kts 145°
2026-04-25 16:09 -34.49002 -59.01814 7505 ft 291 kts 144°
2026-04-25 16:09 -34.50584 -59.00302 7056 ft 288 kts 144°
2026-04-25 16:09 -34.52135 -58.98819 6611 ft 285 kts 144°
2026-04-25 16:09 -34.53691 -58.97337 6160 ft 283 kts 144°
2026-04-25 16:10 -34.55228 -58.95875 5709 ft 280 kts 144°
2026-04-25 16:10 -34.56758 -58.94416 5283 ft 277 kts 143°
2026-04-25 16:10 -34.58255 -58.92984 5025 ft 271 kts 143°
2026-04-25 16:10 -34.59722 -58.91579 4774 ft 266 kts 143°
2026-04-25 16:11 -34.61164 -58.90196 4523 ft 262 kts 143°
2026-04-25 16:11 -34.62583 -58.88834 4273 ft 259 kts 143°
2026-04-25 16:11 -34.63992 -58.87480 4023 ft 259 kts 143°
2026-04-25 16:11 -34.65404 -58.86123 3775 ft 258 kts 143°
2026-04-25 16:12 -34.66803 -58.84778 3523 ft 253 kts 143°
2026-04-25 16:12 -34.68162 -58.83469 3303 ft 242 kts 143°
2026-04-25 16:12 -34.69423 -58.82254 3200 ft 227 kts 143°
2026-04-25 16:12 -34.70237 -58.81470 3153 ft 215 kts 143°
2026-04-25 16:13 -34.71721 -58.80039 3036 ft 195 kts 143°
2026-04-25 16:13 -34.72763 -58.79035 2941 ft 188 kts 143°
2026-04-25 16:13 -34.73780 -58.78054 2849 ft 184 kts 143°
2026-04-25 16:13 -34.74779 -58.77091 2759 ft 183 kts 143°
2026-04-25 16:14 -34.75771 -58.76135 2672 ft 183 kts 143°
2026-04-25 16:14 -34.76759 -58.75183 2587 ft 177 kts 143°
2026-04-25 16:14 -34.77707 -58.74267 2492 ft 172 kts 143°
2026-04-25 16:14 -34.78474 -58.73196 2370 ft 171 kts 117°
2026-04-25 16:15 -34.78881 -58.71846 2300 ft 170 kts 109°
2026-04-25 16:15 -34.79184 -58.70460 2232 ft 169 kts 105°
2026-04-25 16:15 -34.79438 -58.69084 2189 ft 162 kts 104°
2026-04-25 16:15 -34.79676 -58.67769 2075 ft 158 kts 104°
2026-04-25 16:16 -34.79909 -58.66477 1907 ft 154 kts 104°
2026-04-25 16:16 -34.80148 -58.65151 621 ft 192 kts 103°
2026-04-25 16:16 -34.80540 -58.62984 269 ft 269 kts 102°
2026-04-25 16:16 -34.80749 -58.61863 423 ft 273 kts 102°
2026-04-25 16:17 -34.80798 -58.61604 522 ft 261 kts 102°
2026-04-25 16:18 -34.81118 -58.59752 1164 ft 194 kts 100°
2026-04-25 16:18 -34.81173 -58.59405 940 ft 195 kts 100°
2026-04-25 16:18 -34.81626 -58.56803 231 ft 180 kts 103°
2026-04-25 16:18 -34.81892 -58.55416 102 ft 159 kts 104°
2026-04-25 16:19 -34.82107 -58.54216 74 ft 120 kts 102°
2026-04-25 16:19 -34.82240 -58.53486 74 ft 62 kts 102°
2026-04-25 16:19 -34.82303 -58.53126 74 ft 40 kts 102°
2026-04-25 16:20 -34.82293 -58.52886 74 ft 4 kts 346°
2026-04-25 16:20 -34.82265 -58.52896 74 ft 5 kts 345°
2026-04-25 16:20 -34.82150 -58.52936 74 ft 12 kts 344°
2026-04-25 16:21 -34.82076 -58.52961 74 ft 10 kts 342°
2026-04-25 16:21 -34.82026 -58.53009 74 ft 7 kts 293°
2026-04-25 16:21 -34.82009 -58.53078 74 ft 10 kts 284°
2026-04-25 16:21 -34.81991 -58.53171 74 ft 13 kts 283°
2026-04-25 16:22 -34.81968 -58.53283 74 ft 15 kts 285°
2026-04-25 16:22 -34.81941 -58.53412 74 ft 17 kts 283°
2026-04-25 16:22 -34.81912 -58.53556 74 ft 18 kts 284°
2026-04-25 16:22 -34.81834 -58.53669 74 ft 15 kts 334°
2026-04-25 16:23 -34.81747 -58.53722 74 ft 14 kts 334°
2026-04-25 16:23 -34.81645 -58.53753 74 ft 16 kts 15°
2026-04-25 16:23 -34.81552 -58.53670 74 ft 17 kts 29°
2026-04-25 16:23 -34.81453 -58.53606 74 ft 14 kts 28°
2026-04-25 16:24 -34.81404 -58.53610 74 ft 7 kts 311°
2026-04-25 16:24 -34.81374 -58.53670 74 ft 8 kts 297°
2026-04-25 16:24 -34.81359 -58.53706 74 ft 0 kts 295°
2026-04-25 16:26 -34.81358 -58.53709 74 ft 0 kts 294°